Time,TemperatureF,DewpointF,PressureIn,WindDirection,WindDirectionDegrees,WindSpeedMPH,WindSpeedGustMPH,Humidity,HourlyPrecipIn,Conditions,Clouds,dailyrainin,SoftwareType,DateUTC
2013-05-16 00:00:00,55.0,50.6,30.01,North,0,0.0,0.0,85,0.00,,,-99.99,Weather View 32 v70,2013-05-16 07:00:00,
2013-05-16 00:07:00,55.0,50.6,30.01,North,0,0.0,0.0,85,0.00,,,-99.99,Weather View 32 v70,2013-05-16 07:07:00,
2013-05-16 00:22:00,55.0,51.2,30.01,NNW,338,0.0,0.0,87,0.00,,,-99.99,Weather View 32 v70,2013-05-16 07:22:00,
2013-05-16 00:37:00,56.0,51.9,30.02,North,0,0.0,0.0,86,0.00,,,-99.99,Weather View 32 v70,2013-05-16 07:37:00,
2013-05-16 00:52:00,56.0,50.6,30.01,NNW,338,0.0,0.0,82,0.00,,,-99.99,Weather View 32 v70,2013-05-16 07:52:00,
2013-05-16 01:00:00,56.0,51.5,30.01,North,0,0.0,0.0,85,0.00,,,-99.99,Weather View 32 v70,2013-05-16 08:00:00,
2013-05-16 01:07:00,56.0,51.5,30.01,North,0,0.0,0.0,85,0.00,,,-99.99,Weather View 32 v70,2013-05-16 08:07:00,
2013-05-16 01:22:00,57.0,51.9,30.00,North,0,0.0,0.0,83,0.00,,,-99.99,Weather View 32 v70,2013-05-16 08:22:00,
2013-05-16 01:37:00,57.0,51.5,30.00,North,0,0.0,0.0,82,0.00,,,-99.99,Weather View 32 v70,2013-05-16 08:37:00,
2013-05-16 01:52:00,58.0,52.2,29.99,North,0,0.0,0.0,81,0.00,,,-99.99,Weather View 32 v70,2013-05-16 08:52:00,
2013-05-16 02:00:00,58.0,51.8,29.99,North,0,0.0,0.0,80,0.00,,,-99.99,Weather View 32 v70,2013-05-16 09:00:00,
2013-05-16 02:07:00,58.0,51.8,29.99,North,0,0.0,0.0,80,0.00,,,-99.99,Weather View 32 v70,2013-05-16 09:07:00,
2013-05-16 02:22:00,58.0,51.8,29.99,North,0,0.0,0.0,80,0.00,,,-99.99,Weather View 32 v70,2013-05-16 09:22:00,
2013-05-16 02:37:00,58.0,51.8,29.98,North,0,0.0,0.0,80,0.00,,,-99.99,Weather View 32 v70,2013-05-16 09:37:00,
2013-05-16 02:52:00,58.0,51.8,29.98,North,0,0.0,0.0,80,0.00,,,-99.99,Weather View 32 v70,2013-05-16 09:52:00,
2013-05-16 03:00:00,59.0,52.8,29.98,North,0,0.0,0.0,80,0.00,,,-99.99,Weather View 32 v70,2013-05-16 10:00:00,
2013-05-16 03:07:00,59.0,52.8,29.98,North,0,0.0,0.0,80,0.00,,,-99.99,Weather View 32 v70,2013-05-16 10:07:00,
2013-05-16 03:22:00,57.0,51.2,29.98,NNW,338,0.0,0.0,81,0.00,,,-99.99,Weather View 32 v70,2013-05-16 10:22:00,
2013-05-16 03:37:00,57.0,52.5,29.98,North,0,0.0,0.0,85,0.00,,,-99.99,Weather View 32 v70,2013-05-16 10:37:00,
2013-05-16 03:52:00,57.0,52.5,29.98,North,0,0.0,0.0,85,0.00,,,-99.99,Weather View 32 v70,2013-05-16 10:52:00,
2013-05-16 04:00:00,57.0,52.8,29.98,NNW,338,0.0,0.0,86,0.00,,,-99.99,Weather View 32 v70,2013-05-16 11:00:00,
2013-05-16 04:07:00,57.0,52.8,29.98,NNW,338,0.0,0.0,86,0.00,,,-99.99,Weather View 32 v70,2013-05-16 11:07:00,
2013-05-16 04:22:00,57.0,52.5,29.97,North,0,0.0,0.0,85,0.00,,,-99.99,Weather View 32 v70,2013-05-16 11:22:00,
2013-05-16 04:37:00,58.0,52.5,29.98,North,0,0.0,0.0,82,0.00,,,-99.99,Weather View 32 v70,2013-05-16 11:37:00,
2013-05-16 04:52:00,58.0,52.5,29.97,North,0,0.0,0.0,82,0.00,,,-99.99,Weather View 32 v70,2013-05-16 11:52:00,
2013-05-16 05:07:00,58.0,52.5,29.97,North,0,0.0,0.0,82,0.00,,,-99.99,Weather View 32 v70,2013-05-16 12:07:00,
2013-05-16 05:22:00,58.0,52.5,29.97,North,0,0.0,0.0,82,0.00,,,-99.99,Weather View 32 v70,2013-05-16 12:22:00,
2013-05-16 05:37:00,58.0,52.5,29.97,North,0,0.0,0.0,82,0.00,,,-99.99,Weather View 32 v70,2013-05-16 12:37:00,
2013-05-16 05:52:00,58.0,52.9,29.98,North,0,0.0,0.0,83,0.00,,,-99.99,Weather View 32 v70,2013-05-16 12:52:00,
2013-05-16 06:07:00,57.0,52.2,29.98,North,0,0.0,0.0,84,0.00,,,-99.99,Weather View 32 v70,2013-05-16 13:07:00,
2013-05-16 06:22:00,57.0,52.8,29.98,North,0,0.0,0.0,86,0.00,,,-99.99,Weather View 32 v70,2013-05-16 13:22:00,
2013-05-16 06:23:00,57.0,52.8,29.98,North,0,0.0,0.0,86,0.00,,,-99.99,Weather View 32 v70,2013-05-16 13:23:00,
2013-05-16 06:37:00,57.0,52.8,29.99,North,0,0.0,0.0,86,0.00,,,-99.99,Weather View 32 v70,2013-05-16 13:37:00,
2013-05-16 06:52:00,58.0,52.9,29.99,North,0,0.0,0.0,83,0.00,,,-99.99,Weather View 32 v70,2013-05-16 13:52:00,
2013-05-16 07:07:00,58.0,52.9,29.99,North,0,0.0,0.0,83,0.00,,,-99.99,Weather View 32 v70,2013-05-16 14:07:00,
2013-05-16 07:22:00,58.0,52.9,29.99,North,0,0.0,0.0,83,0.00,,,-99.99,Weather View 32 v70,2013-05-16 14:22:00,
2013-05-16 07:23:00,58.0,52.9,29.99,North,0,0.0,0.0,83,0.00,,,-99.99,Weather View 32 v70,2013-05-16 14:23:00,
2013-05-16 07:37:00,59.0,53.8,29.99,North,0,0.0,0.0,83,0.00,,,-99.99,Weather View 32 v70,2013-05-16 14:37:00,
2013-05-16 07:52:00,59.0,54.2,29.99,NNW,338,0.0,0.0,84,0.00,,,-99.99,Weather View 32 v70,2013-05-16 14:52:00,
2013-05-16 08:07:00,59.0,54.2,29.99,North,0,0.0,0.0,84,0.00,,,-99.99,Weather View 32 v70,2013-05-16 15:07:00,
2013-05-16 08:22:00,60.0,54.8,30.00,North,0,0.0,0.0,83,0.00,,,-99.99,Weather View 32 v70,2013-05-16 15:22:00,
2013-05-16 08:24:00,60.0,54.8,30.00,North,0,0.0,0.0,83,0.00,,,-99.99,Weather View 32 v70,2013-05-16 15:24:00,
2013-05-16 08:37:00,60.0,54.5,30.00,North,0,0.0,0.0,82,0.00,,,-99.99,Weather View 32 v70,2013-05-16 15:37:00,
2013-05-16 08:52:00,61.0,54.8,30.00,North,0,0.0,0.0,80,0.00,,,-99.99,Weather View 32 v70,2013-05-16 15:52:00,
2013-05-16 09:07:00,62.0,55.0,30.00,North,0,0.0,0.0,78,0.00,,,-99.99,Weather View 32 v70,2013-05-16 16:07:00,
2013-05-16 09:22:00,63.0,55.3,30.00,North,0,0.0,0.0,76,0.00,,,-99.99,Weather View 32 v70,2013-05-16 16:22:00,
2013-05-16 09:24:00,63.0,55.3,30.00,North,0,0.0,0.0,76,0.00,,,-99.99,Weather View 32 v70,2013-05-16 16:24:00,
2013-05-16 09:37:00,63.0,54.6,30.00,NNW,338,0.0,0.0,74,0.00,,,-99.99,Weather View 32 v70,2013-05-16 16:37:00,
2013-05-16 09:52:00,64.0,54.8,30.00,NNW,338,0.0,0.0,72,0.00,,,-99.99,Weather View 32 v70,2013-05-16 16:52:00,
2013-05-16 10:07:00,65.0,54.9,29.99,NNW,338,0.0,0.0,70,0.00,,,-99.99,Weather View 32 v70,2013-05-16 17:07:00,
2013-05-16 10:15:00,65.0,54.9,30.00,North,0,0.0,0.0,70,0.00,,,-99.99,Weather View 32 v70,2013-05-16 17:15:00,
2013-05-16 10:22:00,65.0,54.9,30.00,North,0,0.0,0.0,70,0.00,,,-99.99,Weather View 32 v70,2013-05-16 17:22:00,
2013-05-16 10:37:00,66.0,55.5,30.00,North,0,0.0,0.0,69,0.00,,,-99.99,Weather View 32 v70,2013-05-16 17:37:00,
2013-05-16 10:52:00,67.0,55.2,30.00,North,0,0.0,0.0,66,0.00,,,-99.99,Weather View 32 v70,2013-05-16 17:52:00,
2013-05-16 11:07:00,67.0,54.0,30.00,North,0,0.0,0.0,63,0.00,,,-99.99,Weather View 32 v70,2013-05-16 18:07:00,
2013-05-16 11:15:00,68.0,54.5,30.00,North,0,0.0,0.0,62,0.00,,,-99.99,Weather View 32 v70,2013-05-16 18:15:00,
2013-05-16 11:22:00,68.0,54.5,30.00,North,0,0.0,0.0,62,0.00,,,-99.99,Weather View 32 v70,2013-05-16 18:22:00,
2013-05-16 11:37:00,69.0,54.0,30.00,North,0,0.0,0.0,59,0.00,,,-99.99,Weather View 32 v70,2013-05-16 18:37:00,
2013-05-16 11:52:00,70.0,53.5,29.99,North,0,0.0,0.0,56,0.00,,,-99.99,Weather View 32 v70,2013-05-16 18:52:00,
2013-05-16 12:07:00,70.0,54.0,30.00,North,0,0.0,0.0,57,0.00,,,-99.99,Weather View 32 v70,2013-05-16 19:07:00,
2013-05-16 12:15:00,70.0,53.0,29.99,NNW,338,0.0,0.0,55,0.00,,,-99.99,Weather View 32 v70,2013-05-16 19:15:00,
2013-05-16 12:22:00,70.0,53.0,29.99,NNW,338,0.0,0.0,55,0.00,,,-99.99,Weather View 32 v70,2013-05-16 19:22:00,
2013-05-16 12:37:00,70.0,51.5,29.99,North,0,0.0,0.0,52,0.00,,,-99.99,Weather View 32 v70,2013-05-16 19:37:00,
2013-05-16 12:52:00,71.0,53.0,29.99,North,0,0.0,0.0,53,0.00,,,-99.99,Weather View 32 v70,2013-05-16 19:52:00,
2013-05-16 13:07:00,71.0,51.9,29.98,NNW,338,0.0,0.0,51,0.00,,,-99.99,Weather View 32 v70,2013-05-16 20:07:00,
2013-05-16 13:15:00,72.0,50.6,29.98,NNW,338,0.0,0.0,47,0.00,,,-99.99,Weather View 32 v70,2013-05-16 20:15:00,
2013-05-16 13:22:00,72.0,50.6,29.98,NNW,338,0.0,0.0,47,0.00,,,-99.99,Weather View 32 v70,2013-05-16 20:22:00,
2013-05-16 13:37:00,72.0,50.6,29.98,North,0,0.0,0.0,47,0.00,,,-99.99,Weather View 32 v70,2013-05-16 20:37:00,
2013-05-16 13:52:00,71.0,49.7,29.98,North,0,0.0,0.0,47,0.00,,,-99.99,Weather View 32 v70,2013-05-16 20:52:00,
2013-05-16 14:07:00,70.0,47.0,29.98,North,0,0.0,0.0,44,0.00,,,-99.99,Weather View 32 v70,2013-05-16 21:07:00,
2013-05-16 14:15:00,71.0,49.1,29.98,North,0,0.0,0.0,46,0.00,,,-99.99,Weather View 32 v70,2013-05-16 21:15:00,
2013-05-16 14:22:00,71.0,49.1,29.98,North,0,0.0,0.0,46,0.00,,,-99.99,Weather View 32 v70,2013-05-16 21:22:00,
2013-05-16 14:37:00,70.0,49.4,29.98,North,0,0.0,0.0,48,0.00,,,-99.99,Weather View 32 v70,2013-05-16 21:37:00,
2013-05-16 14:52:00,70.0,48.8,29.97,NNW,338,0.0,0.0,47,0.00,,,-99.99,Weather View 32 v70,2013-05-16 21:52:00,
2013-05-16 15:07:00,69.0,47.3,29.97,North,0,0.0,0.0,46,0.00,,,-99.99,Weather View 32 v70,2013-05-16 22:07:00,
2013-05-16 15:15:00,69.0,46.1,29.97,North,0,0.0,0.0,44,0.00,,,-99.99,Weather View 32 v70,2013-05-16 22:15:00,
2013-05-16 15:22:00,69.0,46.1,29.97,North,0,0.0,0.0,44,0.00,,,-99.99,Weather View 32 v70,2013-05-16 22:22:00,
2013-05-16 15:37:00,70.0,46.4,29.97,North,0,0.0,0.0,43,0.00,,,-99.99,Weather View 32 v70,2013-05-16 22:37:00,
2013-05-16 15:52:00,69.0,47.9,29.97,North,0,0.0,0.0,47,0.00,,,-99.99,Weather View 32 v70,2013-05-16 22:52:00,
2013-05-16 16:07:00,69.0,50.6,29.96,North,0,0.0,0.0,52,0.00,,,-99.99,Weather View 32 v70,2013-05-16 23:07:00,
2013-05-16 16:15:00,69.0,48.4,29.96,North,0,0.0,0.0,48,0.00,,,-99.99,Weather View 32 v70,2013-05-16 23:15:00,
2013-05-16 16:22:00,69.0,48.4,29.96,North,0,0.0,0.0,48,0.00,,,-99.99,Weather View 32 v70,2013-05-16 23:22:00,
2013-05-16 16:37:00,69.0,48.4,29.96,North,0,0.0,0.0,48,0.00,,,-99.99,Weather View 32 v70,2013-05-16 23:37:00,
2013-05-16 16:52:00,67.0,49.3,29.96,NNW,338,0.0,0.0,53,0.00,,,-99.99,Weather View 32 v70,2013-05-16 23:52:00,
2013-05-16 17:07:00,67.0,50.3,29.96,NNW,338,0.0,0.0,55,0.00,,,-99.99,Weather View 32 v70,2013-05-17 00:07:00,
2013-05-16 17:15:00,67.0,49.8,29.96,North,0,0.0,0.0,54,0.00,,,-99.99,Weather View 32 v70,2013-05-17 00:15:00,
2013-05-16 17:22:00,67.0,49.8,29.96,North,0,0.0,0.0,54,0.00,,,-99.99,Weather View 32 v70,2013-05-17 00:22:00,
2013-05-16 17:37:00,65.0,49.8,29.96,North,0,0.0,0.0,58,0.00,,,-99.99,Weather View 32 v70,2013-05-17 00:37:00,
2013-05-16 17:52:00,64.0,50.2,29.97,North,0,0.0,0.0,61,0.00,,,-99.99,Weather View 32 v70,2013-05-17 00:52:00,
2013-05-16 18:07:00,63.0,51.0,29.96,NNW,338,0.0,0.0,65,0.00,,,-99.99,Weather View 32 v70,2013-05-17 01:07:00,
2013-05-16 18:15:00,63.0,50.6,29.96,North,0,0.0,0.0,64,0.00,,,-99.99,Weather View 32 v70,2013-05-17 01:15:00,
2013-05-16 18:22:00,63.0,50.6,29.96,North,0,0.0,0.0,64,0.00,,,-99.99,Weather View 32 v70,2013-05-17 01:22:00,
2013-05-16 18:37:00,64.0,51.1,29.95,NNW,338,0.0,0.0,63,0.00,,,-99.99,Weather View 32 v70,2013-05-17 01:37:00,
2013-05-16 18:52:00,62.0,51.3,29.94,North,0,0.0,0.0,68,0.00,,,-99.99,Weather View 32 v70,2013-05-17 01:52:00,
2013-05-16 19:07:00,62.0,51.3,29.95,NNW,338,0.0,0.0,68,0.00,,,-99.99,Weather View 32 v70,2013-05-17 02:07:00,
2013-05-16 19:15:00,61.0,49.5,29.96,North,0,0.0,0.0,66,0.00,,,-99.99,Weather View 32 v70,2013-05-17 02:15:00,
2013-05-16 19:22:00,61.0,49.5,29.96,North,0,0.0,0.0,66,0.00,,,-99.99,Weather View 32 v70,2013-05-17 02:22:00,
2013-05-16 19:37:00,60.0,49.8,29.96,North,0,0.0,0.0,69,0.00,,,-99.99,Weather View 32 v70,2013-05-17 02:37:00,
2013-05-16 19:52:00,60.0,50.5,29.97,North,0,0.0,0.0,71,0.00,,,-99.99,Weather View 32 v70,2013-05-17 02:52:00,
2013-05-16 20:07:00,59.0,49.6,29.97,North,0,0.0,0.0,71,0.00,,,-99.99,Weather View 32 v70,2013-05-17 03:07:00,
2013-05-16 20:15:00,58.0,49.0,29.97,North,0,0.0,0.0,72,0.00,,,-99.99,Weather View 32 v70,2013-05-17 03:15:00,
2013-05-16 20:22:00,58.0,49.0,29.97,North,0,0.0,0.0,72,0.00,,,-99.99,Weather View 32 v70,2013-05-17 03:22:00,
2013-05-16 20:37:00,58.0,48.6,29.98,North,0,0.0,0.0,71,0.00,,,-99.99,Weather View 32 v70,2013-05-17 03:37:00,
2013-05-16 20:52:00,58.0,48.6,29.98,NNW,338,0.0,0.0,71,0.00,,,-99.99,Weather View 32 v70,2013-05-17 03:52:00,
2013-05-16 21:07:00,58.0,49.0,29.98,NNW,338,0.0,0.0,72,0.00,,,-99.99,Weather View 32 v70,2013-05-17 04:07:00,
2013-05-16 21:15:00,58.0,49.4,29.98,North,0,0.0,0.0,73,0.00,,,-99.99,Weather View 32 v70,2013-05-17 04:15:00,
2013-05-16 21:22:00,58.0,49.4,29.98,North,0,0.0,0.0,73,0.00,,,-99.99,Weather View 32 v70,2013-05-17 04:22:00,
2013-05-16 21:37:00,57.0,49.1,29.97,NNW,338,0.0,0.0,75,0.00,,,-99.99,Weather View 32 v70,2013-05-17 04:37:00,
2013-05-16 21:52:00,57.0,49.5,29.97,North,0,0.0,0.0,76,0.00,,,-99.99,Weather View 32 v70,2013-05-17 04:52:00,
2013-05-16 22:07:00,57.0,50.2,29.97,NNW,338,0.0,0.0,78,0.00,,,-99.99,Weather View 32 v70,2013-05-17 05:07:00,
2013-05-16 22:15:00,56.0,49.9,29.97,North,0,0.0,0.0,80,0.00,,,-99.99,Weather View 32 v70,2013-05-17 05:15:00,
2013-05-16 22:22:00,56.0,49.9,29.97,North,0,0.0,0.0,80,0.00,,,-99.99,Weather View 32 v70,2013-05-17 05:22:00,
2013-05-16 22:37:00,56.0,49.9,29.96,NNW,338,0.0,0.0,80,0.00,,,-99.99,Weather View 32 v70,2013-05-17 05:37:00,
2013-05-16 22:52:00,56.0,49.9,29.96,North,0,0.0,0.0,80,0.00,,,-99.99,Weather View 32 v70,2013-05-17 05:52:00,
2013-05-16 23:07:00,56.0,50.2,29.96,North,0,0.0,0.0,81,0.00,,,-99.99,Weather View 32 v70,2013-05-17 06:07:00,
2013-05-16 23:15:00,56.0,49.9,29.96,North,0,0.0,0.0,80,0.00,,,-99.99,Weather View 32 v70,2013-05-17 06:15:00,
2013-05-16 23:22:00,56.0,49.9,29.96,North,0,0.0,0.0,80,0.00,,,-99.99,Weather View 32 v70,2013-05-17 06:22:00,
2013-05-16 23:37:00,56.0,49.9,29.96,North,0,0.0,0.0,80,0.00,,,-99.99,Weather View 32 v70,2013-05-17 06:37:00,
2013-05-16 23:52:00,56.0,50.2,29.96,North,0,0.0,0.0,81,0.00,,,-99.99,Weather View 32 v70,2013-05-17 06:52:00,